Terminal Aerodrome Forecast
Issued by NWS

Current Version | Previous Version | Graphics & Text | Print | Product List | Glossary On
Versions: 1 2 3 4 5 6 7 8 9 10 11 12 13 14 15 16 17 18 19
000
FTUS41 KPBZ 300300 AAA
TAFMGW
TAF AMD
KMGW 300316Z 3003/3024 27008KT P6SM -SHRA OVC010
     FM300500 27010KT 2SM -SHSN OVC008
     FM301500 31012KT P6SM OVC015
     FM302100 31010KT P6SM BKN025=

USA.gov is the U.S. government's official web portal to all federal, state and local government web resources and services.